Regional Weather Roundup
Issued by NWS

Home | Current Version | Previous Version | Text Only | Print | Product List | Glossary Off
Versions: 1 2 3 4 5 6 7 8 9 10 11 12 13 14 15 16 17 18 19 20 21 22 23 24 25 26 27

000
ASUS45 KSLC 300810
RWRUT

UTAH REGIONAL WEATHER ROUNDUP
NATIONAL WEATHER SERVICE SALT LAKE CITY UT
200 AM MDT TUE MAY 30 2017

UTZ001>011-023>025-300900-

NORTHERN UTAH

CITY           SKY/WX    TMP DP  RH WIND       PRES   REMARKS
BRIGHAM CITY   CLEAR     62  40  44 W5        30.06F
HILL AFB       CLEAR     64  36  36 E18       30.08S
LOGAN          CLEAR     53  44  71 CALM      30.10S
OGDEN          CLEAR     62  38  40 S8        30.05F
SALT LAKE CITY CLEAR     64  44  48 SE6       30.04F
TOOELE VALLEY  CLEAR     52  39  62 S10       30.06F
WENDOVER       CLEAR     59  31  34 W6        30.06S
HEBER CITY     CLEAR     43  37  81 CALM      30.15S
WEST JORDAN    CLEAR     59  46  60 CALM      30.08S

$$

UTZ011>015-024>027-300900-

CENTRAL/NORTHEAST UTAH

CITY           SKY/WX    TMP DP  RH WIND       PRES   REMARKS
PROVO AIRPORT  CLEAR     57  34  41 E5        30.09R
MOAB/CANYONLAN CLEAR     68  25  19 SE9       30.03S
DELTA          CLEAR     52  28  40 NE8       30.07S
PRICE          CLEAR     55  29  36 N5        30.14S
ROOSEVELT      CLEAR     48  37  66 W3        30.17S
VERNAL         CLEAR     58  33  39 N8        30.16S

$$

UTZ013>016-019>022-027-300900-

SOUTHERN UTAH

CITY           SKY/WX    TMP DP  RH WIND       PRES   REMARKS
BRYCE CANYON   CLEAR     40  27  59 W8        30.26R WCI  34
CEDAR CITY     CLEAR     58  23  26 NE6       30.09S
MILFORD        CLEAR     50  22  33 CALM      30.07S
ST GEORGE      SUNNY     75  27  17 N7        29.89S
HANKSVILLE     CLEAR     61  14  16 NE6       30.07R
BLANDING       CLEAR     61  17  18 N10       30.20S

$$

REGIONAL REPORTS     COLORADO/ARIZONA

CITY           SKY/WX    TMP DP  RH WIND       PRES   REMARKS
CRAIG, CO      CLEAR     41  36  82 CALM      30.23S
GRAND JUNCTION CLEAR     62  29  28 NE6       30.10R
RIFLE, CO      CLEAR     51  30  44 E6        30.19R
MONTROSE, CO   CLEAR     55  26  32 SE13      30.18R
CORTEZ, CO     CLEAR     41  33  73 E6        30.17R
COLORADO CITY    N/A     73  27  17 NE15      30.05S
PAGE, AZ       CLEAR     70  22  16 CALM      30.01R
GRAND CANYON   MOCLDY    46  29  51 CALM      30.17S
KINGMAN, AZ    PTCLDY    71  20  14 SE12      29.92S
FLAGSTAFF, AZ  PTCLDY    42  25  50 CALM      30.20S

$$

REGIONAL REPORTS    NEVADA/IDAHO/WYOMING

CITY           SKY/WX    TMP DP  RH WIND       PRES   REMARKS
LAS VEGAS, NV  PTCLDY    83  16   8 S6        29.80R
ELY, NY        CLEAR     44  28  53 S12       30.17R
ELKO, NV       CLEAR     53  33  46 CALM      30.08S
POCATELLO, ID  CLEAR     48  40  73 CALM      30.10S
BURLEY, ID     CLEAR     55  45  68 CALM      30.05S
FORT BRIDGER,    N/A     46  33  59 SE3       30.28S
EVANSTON, WY   CLEAR     51  35  54 E9        30.24F
ROCK SPRINGS,  CLEAR     49  32  52 E7        30.26S
KEMMERER, WY     N/A     48  32  53 NE6       30.28S

$$




USA.gov is the U.S. government's official web portal to all federal, state and local government web resources and services.